Location: Campestrin
(46.4667°N, 11.7167°E)
Time: 17:19:34
(UTC+00:00)

Landsat 7 - Pass Details

Date: 18 April 2021
Orbit: 701 x 703 km, 98.0° (Epoch: 07 May)

Event Time Altitude Azimuth Distance (km) Brightness Sun altitude
Exits shadow 20:20:36 28° 192° (SSW) 1,300 4.9 -20.8°
Maximum altitude 20:22:57 57° 260° (W) 826 4.3 -21.1°
Drops below altitude 10° 20:27:39 10° 339° (NNW) 2,179 7.3 -21.6°
Sets 20:29:57 0° 343° (NNW) 3,101 8.2 -21.9°
